Regional Weather Roundup
Issued by NWS

Home | Current Version | Previous Version | Graphics & Text | Print | Product List | Glossary On
Versions: 1 2 3 4 5 6 7 8 9 10 11 12 13 14 15 16 17 18 19 20 21 22 23 24 25 26 27 28 29 30 31 32 33 34 35 36 37 38 39 40 41 42 43 44 45 46 47 48 49 50
000
ASUS43 KDTX 261210
RWRMI
MICHIGAN HOURLY REGIONAL WEATHER ROUNDUP
NATIONAL WEATHER SERVICE DETROIT/PONTIAC MI
800 AM EDT SAT JUL 26 2014

NOTE: "FAIR" INDICATES FEW OR NO CLOUDS BELOW 12,000 FEET WITH NO
SIGNIFICANT WEATHER AND/OR OBSTRUCTION TO VISIBILITY.

MIZ047>049-052>055-059>063-066>070-074>076-081>083-261300-
SOUTHEAST LOWER MICHIGAN

CITY           SKY/WX    TMP DP  RH WIND       PRES   REMARKS
ADRIAN         CLOUDY    61  57  87 CALM      29.94S
6HR MIN TEMP:  57; 6HR MAX TEMP:  61;

ALMA           RAIN      61  59  91 CALM      29.91R
6HR MIN TEMP:  57; 6HR MAX TEMP:  62;

ANN ARBOR      MOSUNNY   61  58  90 CALM      29.93F
BAD AXE        PTSUNNY   62  58  85 S3        29.91S
6HR MIN TEMP:  59; 6HR MAX TEMP:  66;

DETROIT CITY   SUNNY     69  57  65 SW5       29.93S
6HR MIN TEMP:  64; 6HR MAX TEMP:  69;

DETROIT        MOSUNNY   65  58  78 S7        29.93F
6HR MIN TEMP:  61; 6HR MAX TEMP:  65;

FLINT          SUNNY     65  57  75 SW6       29.92S
6HR MIN TEMP:  60; 6HR MAX TEMP:  65;

GROSSE ILE     SUNNY     68  57  68 SW5       29.93R
HILLSDALE      CLOUDY    63  62  96 S3        29.93S
6HR MIN TEMP:  57; 6HR MAX TEMP:  63;

HOWELL         MOSUNNY   62  58  87 S3        29.91S

CITY           SKY/WX    TMP DP  RH WIND       PRES   REMARKS
JACKSON        PTSUNNY   62  58  86 S5        29.92F
6HR MIN TEMP:  58; 6HR MAX TEMP:  62;

LAMBERTVILLE   CLOUDY    64  59  82 CALM      29.94R
LANSING        MOSUNNY   63  57  81 SW8       29.91S
6HR MIN TEMP:  60; 6HR MAX TEMP:  63; 6HR PCP: TRACE;

LAPEER         NOT AVBL
MASON          PTSUNNY   62  58  86 CALM      29.92R
MONROE         SUNNY     63  61  94 CALM      29.92S
MT. CLEMENS    MOSUNNY   68  58  71 SW6       29.91F
6HR MIN TEMP:  58; 6HR MAX TEMP:  68;

PONTIAC        MOSUNNY   65  56  72 S5        29.92S
6HR MIN TEMP:  57; 6HR MAX TEMP:  65;

PORT HOPE        N/A     65  57  75 SW6       29.89R
6HR MIN TEMP:  64; 6HR MAX TEMP:  67;

PORT HURON     MOSUNNY   64  61  88 CALM      29.93S
TRI CITIES     SUNNY     65  58  78 SW8       29.91R
6HR MIN TEMP:  62; 6HR MAX TEMP:  67;

YPSILANTI      MOSUNNY   67  57  70 SW3       29.94S
6HR MIN TEMP:  62; 6HR MAX TEMP:  67;

$$
MIZ043>046-050>051-056>058-064>065-071>073-077>080-261300-
SOUTHWEST LOWER MICHIGAN

CITY           SKY/WX    TMP DP  RH WIND       PRES   REMARKS
BATTLE CREEK   CLOUDY    64  58  80 S6        29.91F
6HR MIN TEMP:  61; 6HR MAX TEMP:  64;

BENTON HARBOR  CLOUDY    62  59  90 SE5       29.88S
6HR MIN TEMP:  59; 6HR MAX TEMP:  63;

BIG RAPIDS     MOSUNNY   59  59 100 CALM      29.88F
6HR MIN TEMP:  56; 6HR MAX TEMP:  62;

COLDWATER      MOSUNNY   65  61  86 S3        29.91F
6HR MIN TEMP:  60; 6HR MAX TEMP:  65;

HOLLAND        CLOUDY    64  59  83 CALM      29.89R
6HR MIN TEMP:  61; 6HR MAX TEMP:  64;

GRAND RAPIDS   PTSUNNY   64  59  83 S8        29.89S
6HR MIN TEMP:  61; 6HR MAX TEMP:  64; 6HR PCP: TRACE;

KALAMAZOO      PTSUNNY   64  58  80 S5        29.90F
6HR MIN TEMP:  61; 6HR MAX TEMP:  64;

MARSHALL       PTSUNNY   61  58  90 S8        29.91S
MUSKEGON       CLOUDY    67  61  81 S6        29.88R
6HR MIN TEMP:  64; 6HR MAX TEMP:  68;

$$
MIZ016>042-261300-
NORTHERN LOWER MICHIGAN

CITY           SKY/WX    TMP DP  RH WIND       PRES   REMARKS
ALPENA         CLOUDY    65  58  78 SW5       29.86S
6HR MIN TEMP:  63; 6HR MAX TEMP:  65;

BEAVER ISLAND  CLOUDY    65  63  91 SW10      29.80S
6HR MIN TEMP:  61; 6HR MAX TEMP:  65;

BELLAIRE       CLOUDY    66  61  84 CALM      29.83S
6HR MIN TEMP:  65; 6HR MAX TEMP:  67;

CADILLAC       LGT RAIN  60  60  99 S5        29.86S
CHARLEVOIX     CLOUDY    67  62  84 SW6       29.85F
6HR MIN TEMP:  66; 6HR MAX TEMP:  67;

FRANKFORT      CLOUDY    66  60  81 S3        29.84S
GAYLORD        LGT RAIN  63  59  87 SW6       29.85F
6HR MIN TEMP:  61; 6HR MAX TEMP:  64; 6HR PCP:  0.01;

GRAYLING       LGT RAIN  62  61  97 NW6       29.88F
6HR MIN TEMP:  62; 6HR MAX TEMP:  64;

HARBOR SPRINGS CLOUDY    66  60  79 CALM      29.82F
HOUGHTON LAKE  TSTM      61  59  93 MISG      29.86F
6HR MIN TEMP:  61; 6HR MAX TEMP:  64; 6HR PCP: TRACE;

MANISTEE       PTSUNNY   63  59  88 CALM      29.86F
OSCODA         CLOUDY    65  58  77 SW7       29.88R
PELLSTON       CLOUDY    65  61  87 CALM      29.82F
6HR MIN TEMP:  64; 6HR MAX TEMP:  66; 6HR PCP: TRACE;

TRAVERSE CITY  CLOUDY    65  61  87 S3        29.84R
6HR MIN TEMP:  65; 6HR MAX TEMP:  67; 6HR PCP:  0.03;

$$
MIZ007>008-015-261300-
EASTERN UPPER MICHIGAN

CITY           SKY/WX    TMP DP  RH WIND       PRES   REMARKS
KINROSS        CLOUDY    63  63 100 S3        29.80F
6HR MIN TEMP:  61; 6HR MAX TEMP:  63;

MACKINAC ISLAN CLOUDY    64  61  92 SW6       29.80F
6HR MIN TEMP:  63; 6HR MAX TEMP:  64;

NEWBERRY       PTSUNNY   61  60  96 S6        29.77F FOG
6HR MIN TEMP:  57; 6HR MAX TEMP:  61;

S. S. MARIE    CLOUDY    63  59  87 SE6       29.79F
6HR MIN TEMP:  62; 6HR MAX TEMP:  63;

$$
MIZ004>006-011>014-085-261300-
CENTRAL UPPER MICHIGAN

CITY           SKY/WX    TMP DP  RH WIND       PRES   REMARKS
MANISTIQUE     CLOUDY    61  59  94 SW3       29.78S
ESCANABA       CLOUDY    64  59  82 S3        29.78R
6HR MIN TEMP:  63; 6HR MAX TEMP:  66;

MENOMINEE      PTSUNNY   64  61  88 W8        29.77F
6HR MIN TEMP:  64; 6HR MAX TEMP:  66; 6HR PCP:  0.25;

SAWYER-GWINN   CLOUDY    64  63  94 CALM      29.77S THUNDER
$$
MIZ001>003-009>011-084-261300-
WESTERN UPPER MICHIGAN

CITY           SKY/WX    TMP DP  RH WIND       PRES   REMARKS
IRON MOUNTAIN  CLOUDY    63  60  90 SE3       29.78R FOG
6HR MIN TEMP:  61; 6HR MAX TEMP:  66;

HOUGHTON       CLOUDY    66  64  93 S3        29.72F FOG
6HR MIN TEMP:  65; 6HR MAX TEMP:  66; 6HR PCP:  0.06;

COPPER HARBOR    N/A     63  60  90 SW9       29.71S
6HR MIN TEMP:  63; 6HR MAX TEMP:  67; 6HR PCP:  0.04;

$$

ABBREVIATIONS USED IN REMARKS
   TC - TEMPERATURE IN CELSIUS
  WCI - WIND CHILL INDEX
   HX - HEAT INDEX
  VSB - VISIBILITY



USA.gov is the U.S. government's official web portal to all federal, state and local government web resources and services.